| time (UTC) | temp F | wind direction | speed knots | gust knots | rain 1hr in | rain 24hr in | rain mn in | humidity % | barometer mb |
| 20260507141916 | 66 | 298 | 6.1 | 11.3 | 0.00 | 0.00 | 0.00 | 68 | 1011.6 |
| 20260507140415 | 67 | 34 | 4.3 | 9.6 | 0.00 | 0.00 | 0.00 | 68 | 1011.7 |
| 20260507134914 | 66 | 341 | 7.0 | 10.4 | 0.00 | 0.00 | 0.00 | 68 | 1011.8 |
| 20260507133413 | 67 | 321 | 6.1 | 11.3 | 0.00 | 0.00 | 0.00 | 67 | 1011.9 |
| 20260507131912 | 66 | 206 | 7.0 | 14.8 | 0.00 | 0.00 | 0.00 | 68 | 1012.0 |
| 20260507130411 | 66 | 299 | 7.0 | 13.9 | 0.00 | 0.00 | 0.00 | 68 | 1012.0 |
| 20260507124910 | 66 | 301 | 7.8 | 12.2 | 0.00 | 0.00 | 0.00 | 68 | 1012.2 |
| 20260507123410 | 66 | 310 | 7.8 | 13.0 | 0.00 | 0.00 | 0.00 | 68 | 1012.2 |
| 20260507121909 | 69 | 282 | 6.1 | 12.2 | 0.00 | 0.00 | 0.00 | 65 | 1012.3 |
| 20260507120408 | 69 | 277 | 3.5 | 10.4 | 0.00 | 0.00 | 0.00 | 64 | 1012.4 |
| 20260507114907 | 67 | 344 | 4.3 | 7.8 | 0.00 | 0.00 | 0.00 | 65 | 1012.4 |
| 20260507113406 | 66 | 281 | 5.2 | 9.6 | 0.00 | 0.00 | 0.00 | 67 | 1012.5 |
| 20260507111905 | 67 | 298 | 4.3 | 8.7 | 0.00 | 0.00 | 0.00 | 67 | 1012.9 |
| 20260507110404 | 66 | 277 | 3.5 | 7.8 | 0.00 | 0.00 | 0.00 | 67 | 1013.1 |
| 20260507104904 | 65 | 335 | 3.5 | 7.8 | 0.00 | 0.00 | 0.00 | 67 | 1013.2 |
| 20260507103403 | 65 | 216 | 3.5 | 8.7 | 0.00 | 0.00 | 0.00 | 67 | 1013.4 |
| 20260507101902 | 66 | 284 | 2.6 | 5.2 | 0.00 | 0.00 | 0.00 | 67 | 1013.5 |
| 20260507100401 | 64 | 341 | 3.5 | 8.7 | 0.00 | 0.00 | 0.00 | 66 | 1013.7 |
| 20260507094900 | 64 | 312 | 2.6 | 6.1 | 0.00 | 0.00 | 0.00 | 67 | 1013.6 |
| 20260507093359 | 64 | 271 | 3.5 | 7.0 | 0.00 | 0.00 | 0.00 | 67 | 1013.9 |
| 20260507091858 | 64 | 0 | 0.9 | 0.9 | 0.00 | 0.00 | 0.00 | 67 | 1013.9 |
| 20260507090358 | 64 | 18 | 1.7 | 7.0 | 0.00 | 0.00 | 0.00 | 66 | 1013.6 |
| 20260507084857 | 64 | 306 | 0.9 | 4.3 | 0.00 | 0.00 | 0.00 | 64 | 1013.7 |
| 20260507083356 | 62 | 261 | 1.7 | 5.2 | 0.00 | 0.00 | 0.00 | 62 | 1013.8 |
| 20260507081855 | 63 | 317 | 1.7 | 5.2 | 0.00 | 0.00 | 0.00 | 63 | 1013.8 |
| 20260507080354 | 62 | 109 | 0.0 | 1.7 | 0.00 | 0.00 | 0.00 | 64 | 1014.0 |
| 20260507074853 | 60 | 217 | 0.9 | 2.6 | 0.00 | 0.00 | 0.00 | 62 | 1014.2 |
| 20260507073353 | 58 | 198 | 0.9 | 5.2 | 0.00 | 0.00 | 0.00 | 58 | 1014.2 |
| 20260507071852 | 56 | 198 | 1.7 | 5.2 | 0.00 | 0.00 | 0.00 | 56 | 1014.1 |
| 20260507070351 | 55 | 210 | 2.6 | 7.0 | 0.00 | 0.00 | 0.00 | 56 | 1014.1 |
| 20260507064850 | 55 | 217 | 3.5 | 8.7 | 0.00 | 0.00 | 0.00 | 58 | 1014.0 |
| 20260507063349 | 56 | 176 | 2.6 | 6.1 | 0.00 | 0.00 | 0.00 | 57 | 1013.8 |
| 20260507061848 | 56 | 198 | 2.6 | 7.0 | 0.00 | 0.00 | 0.00 | 57 | 1013.6 |
| 20260507060347 | 56 | 185 | 0.9 | 1.7 | 0.00 | 0.00 | 0.00 | 54 | 1013.5 |
| 20260507054847 | 55 | 175 | 1.7 | 6.1 | 0.00 | 0.00 | 0.00 | 50 | 1013.5 |
| 20260507053346 | 54 | 194 | 1.7 | 6.1 | 0.00 | 0.00 | 0.00 | 48 | 1013.4 |
| 20260507051845 | 53 | 172 | 1.7 | 7.0 | 0.00 | 0.00 | 0.00 | 46 | 1013.2 |
| 20260507050344 | 52 | 186 | 0.9 | 4.3 | 0.00 | 0.00 | 0.00 | 46 | 1013.1 |
| 20260507044843 | 51 | 257 | 0.0 | 1.7 | 0.00 | 0.00 | 0.00 | 49 | 1013.1 |
| 20260507043342 | 51 | 257 | 0.0 | 0.0 | 0.00 | 0.00 | 0.00 | 49 | 1013.1 |
| 20260507041841 | 52 | 260 | 0.0 | 0.9 | 0.00 | 0.00 | 0.00 | 48 | 1013.1 |
| 20260507040341 | 52 | 261 | 0.0 | 0.0 | 0.00 | 0.00 | 0.00 | 48 | 1013.1 |
| 20260507034840 | 52 | 261 | 0.0 | 0.9 | 0.00 | 0.00 | 0.00 | 46 | 1013.1 |
| 20260507033339 | 52 | 261 | 0.0 | 2.6 | 0.00 | 0.00 | 0.00 | 46 | 1013.2 |
| 20260507031838 | 51 | 267 | 0.0 | 1.7 | 0.00 | 0.00 | 0.00 | 48 | 1013.2 |
| 20260507030337 | 51 | 271 | 0.0 | 0.0 | 0.00 | 0.00 | 0.00 | 50 | 1013.2 |
| 20260507024836 | 53 | 271 | 0.0 | 1.7 | 0.00 | 0.00 | 0.00 | 47 | 1013.1 |
| 20260507023335 | 52 | 275 | 0.0 | 3.5 | 0.00 | 0.00 | 0.00 | 49 | 1013.0 |
| 20260507021835 | 52 | 283 | 0.0 | 0.9 | 0.00 | 0.00 | 0.00 | 50 | 1013.0 |
| 20260507020334 | 53 | 283 | 0.0 | 0.9 | 0.00 | 0.00 | 0.00 | 48 | 1013.0 |
| 20260507014833 | 52 | 283 | 0.0 | 1.7 | 0.00 | 0.00 | 0.00 | 50 | 1013.2 |
| 20260507013332 | 52 | 283 | 0.0 | 0.0 | 0.00 | 0.00 | 0.00 | 54 | 1013.2 |
| 20260507011831 | 53 | 283 | 0.0 | 0.0 | 0.00 | 0.00 | 0.00 | 52 | 1013.1 |
| 20260507010330 | 53 | 283 | 0.0 | 0.0 | 0.00 | 0.00 | 0.00 | 52 | 1013.2 |
| 20260507004829 | 53 | 283 | 0.0 | 0.0 | 0.00 | 0.00 | 0.00 | 53 | 1013.5 |
| 20260507003329 | 54 | 283 | 0.0 | 0.0 | 0.00 | 0.00 | 0.00 | 52 | 1013.5 |
| 20260507001828 | 54 | 283 | 0.0 | 1.7 | 0.00 | 0.00 | 0.00 | 52 | 1013.6 |
| 20260507000328 | 54 | 283 | 0.0 | 0.0 | 0.00 | 0.00 | 0.00 | 53 | 1013.6 |
| 20260506234826 | 54 | 283 | 0.0 | 0.0 | 0.00 | 0.00 | 0.00 | 55 | 1013.5 |
| 20260506233325 | 54 | 283 | 0.0 | 0.0 | 0.00 | 0.00 | 0.00 | 55 | 1013.6 |
| 20260506231824 | 55 | 283 | 0.0 | 1.7 | 0.00 | 0.00 | 0.00 | 56 | 1013.6 |
| 20260506230323 | 55 | 283 | 0.0 | 0.0 | 0.00 | 0.00 | 0.00 | 56 | 1013.6 |
| 20260506224823 | 55 | 283 | 0.0 | 1.7 | 0.00 | 0.00 | 0.00 | 57 | 1013.5 |
| 20260506223322 | 56 | 283 | 0.0 | 1.7 | 0.00 | 0.00 | 0.00 | 59 | 1013.5 |
| 20260506221821 | 56 | 283 | 0.0 | 0.9 | 0.00 | 0.00 | 0.00 | 59 | 1013.4 |
| 20260506220320 | 56 | 283 | 0.0 | 0.0 | 0.00 | 0.00 | 0.00 | 60 | 1013.4 |
| 20260506214819 | 57 | 283 | 0.0 | 0.9 | 0.00 | 0.00 | 0.00 | 61 | 1013.4 |
| 20260506213318 | 57 | 283 | 0.0 | 1.7 | 0.00 | 0.00 | 0.00 | 63 | 1013.3 |
| 20260506211818 | 58 | 283 | 0.0 | 0.0 | 0.00 | 0.00 | 0.00 | 64 | 1013.4 |
| 20260506210317 | 58 | 283 | 0.0 | 0.9 | 0.00 | 0.00 | 0.00 | 65 | 1013.2 |
| 20260506204816 | 59 | 283 | 0.0 | 0.9 | 0.00 | 0.00 | 0.00 | 66 | 1013.0 |
| 20260506203315 | 59 | 283 | 0.0 | 0.9 | 0.00 | 0.00 | 0.00 | 66 | 1012.8 |
| 20260506201814 | 60 | 283 | 1.7 | 3.5 | 0.00 | 0.00 | 0.00 | 65 | 1012.6 |
| 20260506200313 | 60 | 292 | 1.7 | 3.5 | 0.00 | 0.00 | 0.00 | 66 | 1012.4 |
| 20260506194812 | 60 | 300 | 0.9 | 3.5 | 0.00 | 0.00 | 0.00 | 66 | 1012.1 |
| 20260506193312 | 60 | 303 | 2.6 | 6.1 | 0.00 | 0.00 | 0.00 | 66 | 1011.8 |
| 20260506191811 | 61 | 309 | 2.6 | 6.1 | 0.00 | 0.00 | 0.00 | 67 | 1011.5 |
| 20260506190310 | 61 | 300 | 2.6 | 7.0 | 0.00 | 0.00 | 0.00 | 68 | 1011.4 |
| 20260506184809 | 62 | 298 | 3.5 | 9.6 | 0.00 | 0.00 | 0.00 | 67 | 1011.1 |
| 20260506183308 | 62 | 102 | 5.2 | 7.8 | 0.00 | 0.00 | 0.00 | 67 | 1010.9 |
| 20260506181807 | 63 | 288 | 5.2 | 11.3 | 0.00 | 0.00 | 0.00 | 67 | 1010.8 |
| 20260506180306 | 63 | 279 | 7.0 | 9.6 | 0.00 | 0.00 | 0.00 | 67 | 1010.4 |
| 20260506174806 | 64 | 302 | 6.1 | 7.8 | 0.00 | 0.00 | 0.00 | 66 | 1010.3 |
| 20260506173305 | 65 | 300 | 4.3 | 7.0 | 0.00 | 0.00 | 0.00 | 66 | 1010.2 |
| 20260506171804 | 65 | 260 | 3.5 | 7.0 | 0.00 | 0.00 | 0.00 | 65 | 1010.0 |
| 20260506170303 | 65 | 298 | 4.3 | 7.8 | 0.00 | 0.00 | 0.00 | 65 | 1009.9 |
| 20260506164802 | 65 | 296 | 5.2 | 10.4 | 0.00 | 0.01 | 0.00 | 65 | 1009.8 |
| 20260506163301 | 66 | 297 | 5.2 | 11.3 | 0.00 | 0.01 | 0.00 | 65 | 1009.8 |
| 20260506161800 | 66 | 298 | 8.7 | 12.2 | 0.00 | 0.01 | 0.00 | 64 | 1009.6 |
| 20260506160300 | 69 | 335 | 6.1 | 12.2 | 0.00 | 0.01 | 0.00 | 58 | 1009.5 |
| 20260506154759 | 73 | 0 | 0.0 | 1.7 | 0.00 | 0.08 | 0.00 | 48 | 1009.4 |
| 20260506153258 | 73 | 33 | 1.7 | 5.2 | 0.00 | 0.08 | 0.00 | 47 | 1009.5 |
| 20260506151757 | 74 | 93 | 1.7 | 6.1 | 0.00 | 0.08 | 0.00 | 47 | 1009.6 |
| 20260506150302 | 74 | 75 | 0.9 | 3.5 | 0.00 | 0.08 | 0.00 | 47 | 1009.8 |
| 20260506144755 | 73 | 107 | 1.7 | 5.2 | 0.00 | 0.09 | 0.00 | 48 | 1009.8 |
| 20260506143254 | 73 | 10 | 0.9 | 3.5 | 0.00 | 0.09 | 0.00 | 46 | 1009.9 |